Regional Weather Roundup
Issued by NWS

Home | Current Version | Previous Version | Text Only | Print | Product List | Glossary On
Versions: 1 2 3 4 5 6 7 8 9 10 11 12 13 14 15 16 17 18 19 20 21 22 23 24 25 26 27
000
ASUS45 KREV 221810
RWRNV
NEVADA REGIONAL WEATHER ROUNDUP
NATIONAL WEATHER SERVICE RENO NV
1000 AM PST SUN JAN 22 2017

NOTE: "FAIR" INDICATES FEW OR NO CLOUDS BELOW 12,000 FEET WITH NO
SIGNIFICANT WEATHER AND/OR OBSTRUCTIONS TO VISIBILITY.

NVZ001-003-004-221900-
WESTERN NEVADA

CITY           SKY/WX    TMP DP  RH WIND       PRES   REMARKS
RENO           CLOUDY    39  34  82 SW9       29.64R
6HR MIN TEMP:  32; 6HR MAX TEMP:  39; 6HR PCP:  0.25;

CARSON CITY    MIX PCPN  36  32  87 CALM      29.67R
MINDEN         MIX PCPN  36  32  87 SE15G23   29.66R
PYRAMID LAKE     N/A     41 N/A N/A S7          N/A
FALLON         CLOUDY    40  32  73 S24G36    29.67R
6HR MIN TEMP:  37; 6HR MAX TEMP:  41; 6HR PCP:  0.01;

LOVELOCK       LGT RAIN  38  34  85 SW14G23   29.68R
6HR MIN TEMP:  32; 6HR MAX TEMP:  38; 6HR PCP:  0.06;

HAWTHORNE        N/A     39  32  75 E22G31    29.73R
$$

NVZ002-CAZ072-073-221900-
NORTHERN AND CENTRAL SIERRA

CITY           SKY/WX    TMP DP  RH WIND       PRES   REMARKS
S. LAKE TAHOE  SNOW      32  29  88 S13G20    29.63R VSB 1/2
6HR MIN TEMP:  32; 6HR MAX TEMP:  36; 6HR PCP:  0.44;

TRUCKEE        LGT SNOW  32  30  93 S13G23    29.64  VSB 1
SQUAW VLY 8000   N/A     27  27 100 S16         N/A
SUSANVILLE     MIX PCPN  36  34  93 MISG      29.64R
MAMMOTH LAKES  HVY SNOW  26  25  97 E9        29.75R VSB 1/4
6HR MIN TEMP:  22; 6HR MAX TEMP:  26;

BRIDGEPORT     SNOW      32  27  81 SW14G25   29.62R VSB 1/2
$$

NVZ030-031-036-221900-
NORTHERN NEVADA

CITY           SKY/WX    TMP DP  RH WIND       PRES   REMARKS
ELKO           CLOUDY    34  26  72 S17G29    29.76R
6HR MIN TEMP:  25; 6HR MAX TEMP:  34; 6HR PCP:  0.01;

WINNEMUCCA     MIX PCPN  36  33  89 SE14G22   29.65R
6HR MIN TEMP:  32; 6HR MAX TEMP:  37; 6HR PCP: TRACE;

WENDOVER       CLOUDY    28  21  74 NE10      29.87F
$$

NVZ035-037-221900-
CENTRAL NEVADA

CITY           SKY/WX    TMP DP  RH WIND       PRES   REMARKS
ELY            CLOUDY    30  24  78 S22G31    29.84R
6HR MIN TEMP:  25; 6HR MAX TEMP:  30; 6HR PCP: TRACE;

EUREKA           N/A     34  21  59 SW15G29   29.79R
6HR MIN TEMP:  28; 6HR MAX TEMP:  34;

$$

NVZ013-014-221900-
SOUTH CENTRAL NEVADA

CITY           SKY/WX    TMP DP  RH WIND       PRES   REMARKS
TONOPAH        LGT SNOW  33  30  88 S16G23    29.84R FOG
6HR MIN TEMP:  31; 6HR MAX TEMP:  33; 6HR PCP:  0.05;

$$

NVZ017-020-022-221900-
SOUTHERN NEVADA

CITY           SKY/WX    TMP DP  RH WIND       PRES   REMARKS
LAS VEGAS      LGT RAIN  45  39  79 S6        30.06F
6HR MIN TEMP:  45; 6HR MAX TEMP:  49; 6HR PCP:  0.10;

N. LAS VEGAS   LGT RAIN  44  41  89 SE7       30.07S
6HR MIN TEMP:  43; 6HR MAX TEMP:  47; 6HR PCP: TRACE;

NELLIS AFB     LGT RAIN  46  40  82 E7        30.09S
6HR MIN TEMP:  45; 6HR MAX TEMP:  48; 6HR PCP:  0.05;

HENDERSON      LGT RAIN  43  39  86 S8        30.08F
6HR MIN TEMP:  43; 6HR MAX TEMP:  46;

MERCURY        LGT RAIN  38  36  92 NE3       29.98F
6HR MIN TEMP:  38; 6HR MAX TEMP:  41; 6HR PCP:  0.14;

$$




USA.gov is the U.S. government's official web portal to all federal, state and local government web resources and services.